Regional Weather Roundup
Issued by NWS Wakefield, VA

Home | Current Version | Previous Version | Text Only | Print | Product List | Glossary On
Versions: 1 2 3 4 5 6 7 8 9 10 11 12 13 14 15 16 17 18 19 20 21 22 23 24 25 26 27 28 29 30 31 32 33 34 35 36 37 38 39 40 41 42 43 44 45 46 47 48 49 50
000
ASUS41 KAKQ 230510
RWRAKQ

REGIONAL WEATHER ROUNDUP
NATIONAL WEATHER SERVICE WAKEFIELD VA
1200 AM EST SUN NOV 23 2014

Note: "fair" indicates few or no clouds below 12,000 feet with no
significant weather and/or obstructions to visibility. * = Denotes
station may not report precipitation (e.g., rain,snow,etc.),
thunder or fog.

VAZ042-051-052>054-056-230600-
NORTHERN VIRGINIA

CITY           SKY/WX    TMP DP  RH WIND       PRES   REMARKS
WASH NATIONAL  CLOUDY    46  19  34 S6        30.27S
DULLES         CLOUDY    42  18  37 S7        30.24F
FORT BELVOIR   CLOUDY    44  20  39 VRB7      30.27S
QUANTICO       CLOUDY    43  23  45 SW10      30.29S
FREDERICKSBRG* MOCLDY    37  19  48 SE3       30.27F
STAFFORD*      CLOUDY    39  15  36 CALM      30.31F
WARRENTON      MOCLDY    44  24  45 S10G16    30.22F
CULPEPER*      PTCLDY    43  18  36 S6        30.24F
MANASSAS*      CLOUDY    45  18  33 S7        30.24F
LEESBURG*      PTCLDY    43  23  45 S3        30.24S
WINCHESTER     CLOUDY    46  12  25 SW7       30.19F
FRONT ROYAL*   CLOUDY    45  19  36 SW8G17    30.18F
LURAY*         CLOUDY    45  23  42 SW6       30.22S
$$

VAZ048-049-060>072-079>083-230600-
CENTRAL AND SOUTH CENTRAL VIRGINIA

CITY           SKY/WX    TMP DP  RH WIND       PRES   REMARKS
RICHMOND       PTCLDY    36  17  46 SW3       30.31F
CHESTERFIELD*  CLEAR     36  12  38 S6        30.32F
PETERSBURG*    CLEAR     29  23  79 S3        30.33S
HANOVER        CLEAR     38  17  42 S6        30.31F
TAPPAHANNOCK*  CLEAR     37  13  38 S3        30.30F
QUINTON*       FAIR      33  24  69 SW5       30.31F
CHARLOTTSVILLE CLEAR     37  19  48 S10       30.25S
GORDONSVILLE*  CLEAR     36  19  50 CALM      30.25F
ORANGE*        CLEAR     36  21  55 S6        30.27F
LOUISA*        CLEAR     41  18  38 S6        30.26S
BUMPASS*       FAIR      37  18  45 SW5       30.28S
FARMVILLE*     CLEAR     32  20  60 S5        30.29F
CREWE*         CLEAR     29  22  74 CALM      30.31S
FORT PICKETT*  CLEAR     33  19  57 S6        30.31F
LUNENBURG*     CLEAR     36  21  53 S5        30.30F
CHASE CITY*    FAIR      32  26  80 CALM      30.32F
CLARKSVILLE*   FAIR      32  21  64 CALM      30.31F
SOUTH HILL*    CLEAR     27  22  80 SW3       30.38F
LAWRENCEVILLE* CLEAR     31  23  73 CALM      30.32F
$$

VAZ088>098-230600-
SOUTHEAST VIRGINIA

CITY           SKY/WX    TMP DP  RH WIND       PRES   REMARKS
NORFOLK        CLEAR     35  27  72 SW7       30.33F
VIRGINIA BEACH PTCLDY    37  28  70 SW3       30.33F
NORFOLK NAVAL  PTCLDY    43  28  55 S6        30.34F
WEST POINT*    CLEAR     33  22  63 SE3       30.33F
SALUDA*        FAIR      39  20  47 SW6       30.31F
NEWPORT NEWS   CLEAR     37  24  59 CALM      30.33F
LANGLEY AFB    CLEAR     38  27  65 S5        30.33F
FORT EUSTIS    CLEAR     38  24  57 S3        30.31F
WILLIAMSBURG*  CLEAR     34  28  80 CALM      30.34S
HR EXEC AP*    CLEAR     27  21  80 CALM      30.35F
FRANKLIN*      CLEAR     27  23  86 CALM      30.34S
WAKEFIELD      CLEAR     30  23  75 CALM      30.33F
$$

VAZ020-022-025-037-045-230600-
WEST CENTRAL AND SOUTHWEST VIRGINIA

CITY           SKY/WX    TMP DP  RH WIND       PRES   REMARKS
STAUNTON*      CLEAR     37  17  43 S5        30.24F
WAYNESBORO*    CLEAR     30  18  59 CALM      30.22F
HOT SPRINGS VA PTCLDY    42  10  28 SW5       30.18S
LYNCHBURG      CLEAR     30  19  63 CALM      30.30F
DANVILLE       PTCLDY    31  21  66 SW3       30.32F
SOUTH BOSTON*  CLEAR     27  21  78 CALM      30.32F
MARTINSVILLE   PTCLDY    28  22  79 CALM      30.32F
ROANOKE        CLEAR     34  19  54 CALM      30.31S
BLACKSBURG     PTCLDY    28  23  80 CALM      30.28F
DUBLIN*        PTCLDY    32  23  69 CALM      30.27F
MARION*        PTCLDY    33  20  57 CALM      30.26F
HILLSVILLE*    PTCLDY    38  17  42 S8        30.25F
RICHLANDS*     PTCLDY    49  20  32 S5        30.19S
WISE*          PTCLDY    48  25  40 S12G17    30.18F
ABINGDON*      PTCLDY    42  21  44 CALM      30.21F
$$

MDZ021>025-VAZ099-100-230600-
SOUTHERN MARYLAND AND THE DELMARVA PENINSULA

CITY           SKY/WX    TMP DP  RH WIND       PRES   REMARKS
PATUXENT RIVER CLEAR     42  15  33 SW7       30.29F
BAY BRIDGE APT   N/A     45  21  39 S8        30.28R
LEONARDTOWN    CLEAR     41  18  38 SW7       30.30F
DOVER          CLOUDY    42  25  51 S12       30.24F
GEORGETOWN     MOCLDY    34  25  69 SW3       30.30F
EASTON         PTCLDY    43  26  52 SW6       30.31F
CAMBRIDGE      PTCLDY    41  27  56 S3        30.29S
SALISBURY      CLEAR     33  27  78 S8        30.30F
OCEAN CITY     CLEAR     38  24  57 SW5       30.31F
WALLOPS ISLAND CLEAR     40  24  53 SW10      30.32F
ACCOMACK*      CLEAR     41  27  56 SW6       30.32F
$$

NCZ012>017-030>032-230600-
NORTH CENTRAL AND EASTERN NORTH CAROLINA

CITY           SKY/WX    TMP DP  RH WIND       PRES   REMARKS
ROANOKE RAPIDS CLEAR     32  25  74 CALM      30.33F
RALEIGH        MOCLDY    35  24  64 CALM      30.33F
ELIZABETH CITY CLEAR     34  29  82 CALM      30.35F
AHOSKIE*       CLEAR     30  23  77 CALM      30.34F
EDENTON*         N/A     40  32  75 CALM      30.34F
CURRITUCK*     CLEAR     36  33  92 CALM      30.35F
KILL DEVIL HLS CLEAR     47  27  46 SW3       30.33F
MANTEO         CLEAR     38  37  97 CALM      30.35F
CAPE HATTERAS  PTCLDY    45  39  79 NE5       30.35F
TARBORO*       MOCLDY    31  28  90 CALM      30.35F
GOLDSBORO      MOCLDY    36  34  92 CALM      30.31F
WASHINGTON     MOCLDY    35  31  87 CALM      30.34S
GREENVILLE     MOCLDY    36  32  87 CALM      30.34S
NEW BERN       MOCLDY    40  35  83 CALM      30.34F
WILMINGTON     MOCLDY    44  43  96 CALM      30.32S
$$

VAZ048-230600-
ELSEWHERE

CITY           SKY/WX    TMP DP  RH WIND       PRES   REMARKS
HARRISBURG PA  MOCLDY    37  20  50 CALM      30.21S
BALTIMORE      MOCLDY    45  18  34 SW9       30.24F
ANNAPOLIS      MOCLDY    44  18  35 S6        30.27S
ANDREWS AFB    CLOUDY    44  17  33 SW13      30.25F
PHILADELPHIA   MOCLDY    44  23  43 SW15      30.26S
WILDWOOD NJ*   CLOUDY    45  25  45 SW13      30.27F
HENDERSON NC   MOCLDY    33  21  59 CALM      30.32F
GREENSBORO     MOCLDY    36  24  62 S3        30.30F
ROCKY MOUNT    MOCLDY    31  26  82 CALM      30.33F
$$

VAZ100-230600-
MARINE

STATION/POSITION TIME  TEMP    WIND        PRES    WAVE   SWELL
                       AIR SEA DIR/SP/G            HT/PER HT/PER
                 (UTC) (F)     (DEG/KT/KT) (MB)    (FT/S) (FT/S)
CAPE MAY NJ      0500   44 46  220/ 12/ 14 1025.4S
LEWES DE         0500   40 47  210/  4/  8 1025.5F
15NM E FENWICK I 0500   51 54              1025.7F   4/ 5
OCEAN-CITY-INLET 0500   43 48  240/  6/  8 1025.8F
WACHAPREAGUE VA  0500   41 42  220/  6/  9 1026.7F
THOMAS POINT MD  0500   45 47  210/ 11/ 12 1026.3F
GOOSES REEF MD   0500   45 47  210/ 14/ 17 1025.7F   1/ 3
COVE POINT MD    0500   44     210/  8/ 12 1025.5S
SOLOMONS ISLAND  0500      49                N/A
BISHOPS HEAD MD  0500   44 38  220/ 13/ 15   N/A
PINEY POINT MD   0500          250/  4/  7   N/A
POTOMAC MD       0500   44 48  230/ 10/ 12 1025.4S   2/ 3
CAMBRIDGE MD     0500   41 42  200/  2/  4 1025.4F
LEWISETTA VA     0500   42 43  240/  6/  8 1025.8R
RAPPAHANNOCK LGT 0500          180/ 15/ 16 1026.9F
STINGRAY PT      0500   44 48  190/  8/ 10 1026.7F   1/ 2
YORK RVR RNG VA  0500   44     210/  8/ 11 1026.3F
YORKTOWN VA      0500   43 50  210/ 10/ 12 1026.4S
JAMESTOWN VA     0500   40 48  170/  4/  6   N/A     0
DOMINION TERM VA 0500   43     200/  5/  6 1027.0F
KIPTOPEKE VA     0500      52  210/  9/ 10   N/A
CHES BAY BRIDGE  0500   45 51  190/  8/ 11 1026.6F
CAPE HENRY VA    0500   43     200/  9/ 11 1025.7F
CHESAPEAKE LGHT  0400   51     210/ 15/ 17 1028.3F
WILLOUBY STN VA  0500   45     260/  4/  8 1025.6S
S CRANEY ISL VA  0500          160/  3/  4 1026.9F
CAPE HENRY BUOY  0400      54                N/A     2/ 3
1ST LANDING BUOY 0500   47 51  210/ 10/ 10 1026.5F   1
CAPE CHARLES BUO 0500      54                N/A     2/ 3   2/ 9
64NM E OF VA BCH 0500   57 61  220/ 12/ 14 1027.6F   2/ 3   2/ 9
DUCK PIER NC     0500   47 54  190/  4/  5 1026.8F
44100 DUCK FRF   0500      57                N/A     2/ 9
44056 DUCK FRF   0500      56                N/A     2/ 8
OREGON INLET NC  0500   47 51  310/  1/  2 1027.7F
HATTERAS NC      0500   47 51   50/  3/  5 1027.9F
DIAMOND SHLS NC  0500   63     170/ 12/ 17 1027.9F   2/ 8   2/ 8


USA.gov is the U.S. government's official web portal to all federal, state and local government web resources and services.